Вернуться в каталог

STARLINK-31212

АктивенСвязьVLEO
NORAD 58875·PAYLOAD·🇺🇸 United States

Запущен Jan 29, 2024 с Cape Canaveral Space Force Station

Loading…

Ближайшие Пролёты (ближайшие 24 часа)

TLE

СвежийSource: CelesTrak SupGP

Эпоха: Sep 15, 2026, 01:46 UTC

1 58875C 24019Y   26258.07409722 -.00008139  00000+0 -29477-3 0  2585
2 58875  42.9991 259.0288 0001339 263.9937 339.1125 15.27584956    15

Отслеживайте STARLINK-31212 в реальном времени с AllMySat

Download on the App Store